Richmond, VA

11:13 PM EDT on April 22, 2018 (GMT -0400)
Richmond International

Weather History for KRIC - November, 2013

Change the Weather History Date:

Monday, November 11, 2013

  Actual Average Record
Temperature  
Mean Temperature 45 °F 52 °F  
Max Temperature 58 °F 63 °F 80 °F (1964)
Min Temperature 32 °F 41 °F 20 °F (1933)
Degree Days  
Heating Degree Days 20 13  
Month to date heating degree days 123 130  
Since 1 July heating degree days 273 363  
Cooling Degree Days 0 0  
Month to date cooling degree days 8 0  
Year to date cooling degree days 1678 1543  
Moisture  
Dew Point 28 °F    
Average Humidity 47    
Maximum Humidity 64    
Minimum Humidity 30    
Precipitation  
Precipitation 0.00 in 0.10 in 1.76 in (1979)
Month to date precipitation 0.07 1.19  
Year to date precipitation 44.58 38.29  
Snow  
Snow 0.00 in 0.00 in 4.50 in (1987)
Month to date snowfall 0.0 0.0  
Since 1 July snowfall 0.0 0.0  
Snow Depth 0.00 in    
Sea Level Pressure  
Sea Level Pressure 30.25 in    
Wind  
Wind Speed 6 mph (SW)    
Max Wind Speed 18 mph    
Max Gust Speed 22 mph    
Visibility 10 miles    
Events      
T = Trace of Precipitation, MM = Missing Value Source: NWS Daily Summary

Daily Weather History Graph

Daily Weather History Graph

Search for Another Location

Airport or City:

Astronomy

Nov. 11, 2013 Rise Set
Actual Time 6:44 AM EST 5:01 PM EST
Civil Twilight 6:17 AM EST 5:28 PM EST
Nautical Twilight 5:45 AM EST 6:00 PM EST
Astronomical Twilight 5:15 AM EST 6:31 PM EST
Moon 1:34 PM EST (11/11) 12:35 AM EST (11/11)
Length of Visible Light 11h 11m
Length of Day
10h 16m
Waxing Gibbous, 66% of the Moon is Illuminated
Nov 11
Waxing Gibbous
Nov 17
Full
Nov 25
Last Quarter
Dec 2
New
Dec 9
First Quarter

Hourly Weather History & Observations

Time (EST) Temp. Windchill Dew Point Humidity Pressure Visibility Wind Dir Wind Speed Gust Speed Precip Events Conditions
12:54 AM 45.0 °F 37.9 °F 25.0 °F 46% 30.27 in 10.0 mi NNW 16.1 mph - N/A   Partly Cloudy
1:54 AM 44.1 °F 38.1 °F 25.0 °F 47% 30.28 in 10.0 mi NNW 11.5 mph - N/A   Partly Cloudy
2:54 AM 42.1 °F 37.1 °F 25.0 °F 51% 30.28 in 10.0 mi NNW 8.1 mph - N/A   Clear
3:54 AM 41.0 °F 35.2 °F 25.0 °F 53% 30.28 in 10.0 mi NNW 9.2 mph - N/A   Clear
4:54 AM 41.0 °F 36.4 °F 25.0 °F 53% 30.29 in 10.0 mi NNW 6.9 mph - N/A   Clear
5:54 AM 39.0 °F - 25.0 °F 57% 30.31 in 9.0 mi Calm Calm - N/A   Clear
6:54 AM 37.0 °F - 25.0 °F 62% 30.32 in 10.0 mi Calm Calm - N/A   Scattered Clouds
7:54 AM 39.0 °F - 28.9 °F 67% 30.35 in 10.0 mi Calm Calm - N/A   Scattered Clouds
8:54 AM 48.9 °F - 28.0 °F 44% 30.36 in 10.0 mi Calm Calm - N/A   Scattered Clouds
9:54 AM 53.1 °F - 27.0 °F 37% 30.36 in 10.0 mi Calm Calm - N/A   Mostly Cloudy
10:54 AM 55.0 °F - 27.0 °F 34% 30.35 in 10.0 mi Calm Calm - N/A   Mostly Cloudy
11:54 AM 54.0 °F - 26.1 °F 34% 30.31 in 10.0 mi Calm Calm - N/A   Scattered Clouds
12:54 PM 57.0 °F - 28.0 °F 33% 30.27 in 10.0 mi SSW 9.2 mph - N/A   Scattered Clouds
1:54 PM 57.9 °F - 27.0 °F 31% 30.23 in 10.0 mi SSW 11.5 mph - N/A   Mostly Cloudy
2:54 PM 57.9 °F - 28.0 °F 32% 30.20 in 10.0 mi South 10.4 mph - N/A   Mostly Cloudy
3:54 PM 55.9 °F - 30.9 °F 39% 30.21 in 10.0 mi SSW 5.8 mph - N/A   Mostly Cloudy
4:54 PM 51.1 °F - 30.9 °F 46% 30.20 in 10.0 mi South 9.2 mph - N/A   Partly Cloudy
5:54 PM 48.0 °F - 30.9 °F 52% 30.19 in 10.0 mi South 9.2 mph - N/A   Partly Cloudy
6:54 PM 46.0 °F 43.1 °F 30.0 °F 54% 30.18 in 10.0 mi South 5.8 mph - N/A   Partly Cloudy
7:54 PM 46.0 °F 43.1 °F 30.9 °F 56% 30.17 in 10.0 mi South 5.8 mph - N/A   Mostly Cloudy
8:54 PM 48.0 °F - 32.0 °F 54% 30.15 in 10.0 mi South 8.1 mph - N/A   Mostly Cloudy
9:54 PM 48.9 °F - 32.0 °F 52% 30.14 in 10.0 mi South 8.1 mph - N/A   Overcast
10:54 PM 51.1 °F - 30.9 °F 46% 30.13 in 10.0 mi SSW 9.2 mph - N/A   Overcast
11:54 PM 50.0 °F - 30.9 °F 48% 30.11 in 10.0 mi SSW 9.2 mph - N/A   Overcast